AMOS-4

Last updated on Tue Sep 22 2026 00:03:12 GMT+0000 (Coordinated Universal Time)

1 39237U 13045A 26264.57322440 .00000003 00000+0 00000+0 0 9995 2 39237 0.0271 228.7521 0001183 301.7536 101.3233 1.00271633 47929
UTC large
Height (km)
Speed (km/s)
/
Latitude / Longitude
Inclination (degrees)
Orbital Period (minutes)
Azimuth
Elevation
Range (km)
Doppler Factor

Next 0 passes for location: London (51.5072 / 0.1276)

No passes found over London.
AMOS-4